Moose Lake, MN

4:58 AM CDT on April 26, 2017 (GMT -0500)
Moose Lake-Carlton County

Weather History for KMZH - October, 2013

Change the Weather History Date:

Tuesday, October 8, 2013

  Actual Average Record
Temperature  
Mean Temperature 52 °F -  
Max Temperature 71 °F 57 °F 82 °F (2003)
Min Temperature 33 °F 35 °F 20 °F (1989)
Degree Days  
Heating Degree Days 13    
Growing Degree Days 2 (Base 50)    
Moisture  
Dew Point 40 °F    
Average Humidity 62    
Maximum Humidity 100    
Minimum Humidity 35    
Precipitation  
Precipitation 0.00 in - - ()
Sea Level Pressure  
Sea Level Pressure 29.84 in    
Wind  
Wind Speed 5 mph (South)    
Max Wind Speed 20 mph    
Max Gust Speed 29 mph    
Visibility 10 miles    
Events      
Averages and records for this station are not official NWS values.
T = Trace of Precipitation, MM = Missing Value Source: NWS Daily Summary

Daily Weather History Graph

Daily Weather History Graph

Search for Another Location

Airport or City:

Trip Planner

Search our weather history database for the weather conditions in past years. The results will help you decide how hot, cold, wet, or windy it might be!

Date:

Astronomy

Oct. 08, 2013 Rise Set
Actual Time 7:19 AM CDT 6:37 PM CDT
Civil Twilight 6:49 AM CDT 7:07 PM CDT
Nautical Twilight 6:14 AM CDT 7:41 PM CDT
Astronomical Twilight 5:39 AM CDT 8:16 PM CDT
Moon 11:27 AM CDT (10/8) 9:00 PM CDT (10/8)
Length of Visible Light 12h 17m
Length of Day
11h 17m
Waxing Crescent, 16% of the Moon is Illuminated
Oct 8
Waxing Crescent
Oct 11
First Quarter
Oct 18
Full
Oct 26
Last Quarter
Nov 3
New

Hourly Weather History & Observations

Time (CDT) Temp. Windchill Dew Point Humidity Pressure Visibility Wind Dir Wind Speed Gust Speed Precip Events Conditions
12:06 AM 35.6 °F - 35.6 °F 100% 29.94 in 0.8 mi Calm Calm - N/A   Mist
12:26 AM 35.6 °F - 35.6 °F 100% 29.94 in 7.0 mi Calm Calm - N/A   Clear
12:46 AM 35.6 °F - 35.6 °F 100% 29.95 in 2.0 mi Calm Calm - N/A   Mist
1:06 AM 35.6 °F - 33.8 °F 93% 29.94 in 7.0 mi Calm Calm - N/A   Clear
1:26 AM 35.6 °F - 33.8 °F 93% 29.94 in 5.0 mi Calm Calm - N/A   Clear
1:46 AM 35.6 °F - 33.8 °F 93% 29.94 in 10.0 mi Calm Calm - N/A   Clear
2:06 AM 35.6 °F - 33.8 °F 93% 29.93 in 10.0 mi Calm Calm - N/A   Clear
2:26 AM 35.6 °F - 33.8 °F 93% 29.93 in 7.0 mi Calm Calm - N/A   Clear
2:46 AM 35.6 °F - 33.8 °F 93% 29.93 in 10.0 mi Calm Calm - N/A   Clear
3:06 AM 35.6 °F - 33.8 °F 93% 29.92 in 7.0 mi Calm Calm - N/A   Clear
3:26 AM 35.6 °F - 33.8 °F 93% 29.92 in 10.0 mi Calm Calm - N/A   Clear
3:46 AM 33.8 °F - 33.8 °F 100% 29.92 in 10.0 mi Calm Calm - N/A   Clear
4:06 AM 33.8 °F - 33.8 °F 100% 29.92 in 10.0 mi Calm Calm - N/A   Clear
4:26 AM 35.6 °F - 33.8 °F 93% 29.92 in 10.0 mi Calm Calm - N/A   Clear
4:46 AM 33.8 °F - 33.8 °F 100% 29.91 in 10.0 mi Calm Calm - N/A   Clear
5:06 AM 35.6 °F - 33.8 °F 93% 29.90 in 10.0 mi Calm Calm - N/A   Clear
5:26 AM 35.6 °F 32.8 °F 35.6 °F 100% 29.90 in 10.0 mi South 3.5 mph - N/A   Clear
5:46 AM 35.6 °F - 35.6 °F 100% 29.90 in 10.0 mi Calm Calm - N/A   Clear
6:06 AM 39.2 °F - 37.4 °F 93% 29.90 in 10.0 mi Calm Calm - N/A   Clear
6:26 AM 37.4 °F - 37.4 °F 100% 29.89 in 10.0 mi Calm Calm - N/A   Clear
6:46 AM 41.0 °F 39.0 °F 37.4 °F 87% 29.88 in 10.0 mi South 3.5 mph - N/A   Clear
7:06 AM 44.6 °F 42.2 °F 41.0 °F 87% 29.88 in 10.0 mi South 4.6 mph - N/A   Clear
7:26 AM 46.4 °F 45.2 °F 41.0 °F 81% 29.87 in 10.0 mi South 3.5 mph - N/A   Clear
7:46 AM 46.4 °F 44.3 °F 41.0 °F 81% 29.87 in 10.0 mi South 4.6 mph - N/A   Clear
8:06 AM 50.0 °F - 41.0 °F 71% 29.87 in 10.0 mi South 5.8 mph - N/A   Clear
8:26 AM 51.8 °F - 41.0 °F 67% 29.87 in 10.0 mi South 5.8 mph - N/A   Clear
8:46 AM 51.8 °F - 41.0 °F 67% 29.86 in 10.0 mi South 5.8 mph - N/A   Clear
9:06 AM 53.6 °F - 41.0 °F 62% 29.86 in 10.0 mi South 8.1 mph - N/A   Clear
9:26 AM 55.4 °F - 42.8 °F 63% 29.85 in 10.0 mi South 8.1 mph 16.1 mph N/A   Clear
9:46 AM 59.0 °F - 42.8 °F 55% 29.84 in 10.0 mi South 10.4 mph - N/A   Clear
10:06 AM 59.0 °F - 42.8 °F 55% 29.84 in 10.0 mi South 8.1 mph - N/A   Clear
10:26 AM 60.8 °F - 42.8 °F 52% 29.83 in 10.0 mi South 9.2 mph 18.4 mph N/A   Clear
10:46 AM 60.8 °F - 42.8 °F 52% 29.82 in 10.0 mi South 9.2 mph 17.3 mph N/A   Clear
11:06 AM 64.4 °F - 44.6 °F 49% 29.82 in 10.0 mi South 9.2 mph - N/A   Clear
11:26 AM 66.2 °F - 44.6 °F 46% 29.81 in 10.0 mi South 12.7 mph 20.7 mph N/A   Clear
11:46 AM 68.0 °F - 42.8 °F 40% 29.80 in 10.0 mi South 12.7 mph 24.2 mph N/A   Clear
12:06 PM 68.0 °F - 44.6 °F 43% 29.80 in 10.0 mi SSW 10.4 mph 19.6 mph N/A   Clear
12:26 PM 69.8 °F - 44.6 °F 40% 29.79 in 10.0 mi South 10.4 mph 20.7 mph N/A   Clear
12:46 PM 69.8 °F - 42.8 °F 38% 29.79 in 10.0 mi SSW 10.4 mph 25.3 mph N/A   Clear
1:06 PM 69.8 °F - 42.8 °F 38% 29.77 in 10.0 mi South 13.8 mph 21.9 mph N/A   Clear
1:26 PM 71.6 °F - 42.8 °F 35% 29.77 in 10.0 mi South 13.8 mph 25.3 mph N/A   Clear
1:46 PM 71.6 °F - 44.6 °F 38% 29.76 in 10.0 mi SSW 11.5 mph 23.0 mph N/A   Clear
2:06 PM 71.6 °F - 42.8 °F 35% 29.76 in 10.0 mi SSW 19.6 mph 26.5 mph N/A   Clear
2:26 PM 71.6 °F - 42.8 °F 35% 29.75 in 10.0 mi South 13.8 mph 24.2 mph N/A   Clear
2:46 PM 71.6 °F - 42.8 °F 35% 29.75 in 10.0 mi South 15.0 mph 21.9 mph N/A   Clear
3:06 PM 71.6 °F - 42.8 °F 35% 29.75 in 10.0 mi SSW 17.3 mph 26.5 mph N/A   Clear
3:26 PM 71.6 °F - 44.6 °F 38% 29.75 in 10.0 mi South 15.0 mph 25.3 mph N/A   Clear
3:46 PM 71.6 °F - 42.8 °F 35% 29.75 in 10.0 mi South 12.7 mph 28.8 mph N/A   Clear
4:06 PM 71.6 °F - 42.8 °F 35% 29.75 in 10.0 mi South 18.4 mph 23.0 mph N/A   Clear
4:26 PM 71.6 °F - 42.8 °F 35% 29.75 in 10.0 mi SSW 13.8 mph 27.6 mph N/A   Clear
4:46 PM 71.6 °F - 42.8 °F 35% 29.76 in 10.0 mi South 15.0 mph 19.6 mph N/A   Clear
5:06 PM 69.8 °F - 42.8 °F 38% 29.76 in 10.0 mi South 16.1 mph 25.3 mph N/A   Clear
5:26 PM 69.8 °F - 42.8 °F 38% 29.76 in 10.0 mi South 12.7 mph 17.3 mph N/A   Clear
5:46 PM 69.8 °F - 42.8 °F 38% 29.76 in 10.0 mi South 10.4 mph 23.0 mph N/A   Clear
6:06 PM 69.8 °F - 42.8 °F 38% 29.76 in 10.0 mi South 12.7 mph 19.6 mph N/A   Clear
6:26 PM 68.0 °F - 42.8 °F 40% 29.76 in 10.0 mi South 10.4 mph 18.4 mph N/A   Clear
6:46 PM 68.0 °F - 42.8 °F 40% 29.77 in 10.0 mi South 9.2 mph 24.2 mph N/A   Clear
7:06 PM 66.2 °F - 42.8 °F 43% 29.79 in 10.0 mi South 8.1 mph - N/A   Clear
7:26 PM 66.2 °F - 42.8 °F 43% 29.80 in 10.0 mi South 8.1 mph - N/A   Clear
7:46 PM 64.4 °F - 42.8 °F 45% 29.81 in 10.0 mi South 8.1 mph - N/A   Clear
8:06 PM 64.4 °F - 42.8 °F 45% 29.81 in 10.0 mi South 8.1 mph - N/A   Clear
8:26 PM 64.4 °F - 42.8 °F 45% 29.81 in 10.0 mi South 8.1 mph - N/A   Clear
8:46 PM 62.6 °F - 42.8 °F 48% 29.82 in 10.0 mi South 6.9 mph - N/A   Clear
9:06 PM 62.6 °F - 42.8 °F 48% 29.82 in 10.0 mi South 6.9 mph - N/A   Clear
9:26 PM 62.6 °F - 42.8 °F 48% 29.83 in 10.0 mi South 6.9 mph - N/A   Clear
9:46 PM 62.6 °F - 42.8 °F 48% 29.83 in 10.0 mi South 6.9 mph - N/A   Clear
10:06 PM 60.8 °F - 42.8 °F 52% 29.83 in 10.0 mi South 6.9 mph - N/A   Clear
10:26 PM 60.8 °F - 42.8 °F 52% 29.84 in 10.0 mi South 8.1 mph - N/A   Clear
10:46 PM 60.8 °F - 42.8 °F 52% 29.84 in 10.0 mi SSW 8.1 mph - N/A   Clear
11:06 PM 60.8 °F - 42.8 °F 52% 29.85 in 10.0 mi SSW 9.2 mph - N/A   Clear
11:26 PM 60.8 °F - 44.6 °F 55% 29.86 in 10.0 mi SSW 9.2 mph - N/A   Clear
11:46 PM 60.8 °F - 44.6 °F 55% 29.86 in 10.0 mi SSW 10.4 mph - N/A   Clear